« Back
NWS Peachtree City, Ga » Text Product » GA Regional Weather Roundup


Printer-friendly Version
Current Version              Previous Versions:   1  2  3  4  5  6  7  8  9  

Regional Weather Roundup

804
ASUS42 KFFC 240203
RWRGA
WEATHER ROUNDUP FOR GEORGIA
NATIONAL WEATHER SERVICE PEACHTREE CITY GA
1000 PM EDT WED APR 23 2014

NOTE: "FAIR" INDICATES FEW OR NO CLOUDS BELOW 12,000 FEET WITH NO
SIGNIFICANT WEATHER AND/OR OBSTRUCTIONS TO VISIBILITY.

* = USE WITH CAUTION. THE STATIONS MARKED WITH AN ASTERISK MAY NOT
REPORT WEATHER SUCH AS PRECIPITATION, FOG, OR THUNDER AND ARE NOT
QUALITY CONTROLLED BY NWS.

THE REMARK "TC" DENOTES TEMPERATURE READING IN DEGREES CELSIUS.

GAZ001>058-240300-
NORTH GEORGIA

CITY           SKY/WX    TMP DP  RH WIND       PRES   REMARKS
ATLANTA        CLEAR     64  36  35 NW8       29.94R
ATHENS         CLEAR     65  41  41 W6        29.92R
CHAMBLEE       CLEAR     62  34  35 NW3       29.94R
PEACHTREE CITY CLEAR     55  48  77 CALM      29.96R
ROME           CLEAR     58  46  64 CALM      29.95R
WEST ATLANTA   CLEAR     57  42  57 CALM      29.94R
GAINESVILLE    CLEAR     63  38  39 W8        29.95R
CARTERSVILLE   CLEAR     53  42  66 CALM      29.96R


CITY           SKY/WX    TMP DP  RH WIND       PRES   REMARKS
DALTON*        CLEAR     54  43  66 CALM      29.96S
MARIETTA       CLEAR     64  36  35 NW6       29.95R
$$

GAZ059>098-102>109-240300-
CENTRAL GEORGIA

CITY           SKY/WX    TMP DP  RH WIND       PRES   REMARKS
AUGUSTA-BUSH   CLEAR     59  50  72 CALM      29.89R
AUGUSTA-DANIEL CLEAR     72  38  29 N6        29.91R
COLUMBUS       CLEAR     68  48  48 CALM      29.92R
MACON          CLEAR     58  51  78 CALM      29.91R
ROBINS AFB     CLEAR     59  53  81 CALM      29.91R


CITY           SKY/WX    TMP DP  RH WIND       PRES   REMARKS
LAGRANGE*      CLEAR     57  48  73 CALM      29.94R
SYLVANIA*      CLEAR     63  54  72 CALM      29.90R
MILLEDGEVILLE* CLEAR     61  36  39 CALM      29.91R
$$

GAZ099>101-110>166-240300-
SOUTH GEORGIA

CITY           SKY/WX    TMP DP  RH WIND       PRES   REMARKS
SAVANNAH       CLEAR     68  57  68 CALM      29.90R
VALDOSTA       CLEAR     68  61  78 CALM      29.92R
ALMA           CLEAR     63  59  87 CALM      29.91R
ST SIMONS      CLEAR     70  62  76 CALM      29.91R
FT STEWART     CLEAR     66  61  85 CALM      29.90R
ALBANY         CLEAR     67  60  78 CALM      29.93R
HUNTER AFB     CLEAR     68  56  64 W2        29.88R
MOODY AFB      LGT RAIN  69  61  76 CALM      29.91R
BRUNSWICK      CLEAR     64  61  88 CALM      29.91R


CITY           SKY/WX    TMP DP  RH WIND       PRES   REMARKS
BAINBRIDGE*    CLEAR     72  68  88 CALM      29.92R
MOULTRIE*      CLEAR     68  64  88 CALM      29.93R
VIDALIA*       CLEAR     66  57  72 CALM      29.91R
DOUGLAS*       CLEAR     68  63  83 CALM      29.92S
$$



USA.gov is the U.S. government's official web portal to all federal, state and local government web resources and services.